Location: Potomac
(46.8816°N, 113.5795°W)
Time: 16:30:21
(UTC+00:00)

UKube-1 - Pass Details

Date: 03 July 2022
Orbit: 608 x 615 km, 98.4° (Epoch: 18 August)

Event Time Altitude Azimuth Distance (km) Brightness Sun altitude
Rises 06:26:58 0° 5° (N) 2,897 ? -18.3°
Reaches altitude 10° 06:29:19 10° 356° (N) 1,986 ? -18.4°
Maximum altitude 06:33:09 32° 293° (WNW) 1,058 ? -18.6°
Enters shadow 06:36:39 12° 232° (SW) 1,858 ? -18.8°
